Location: Arroyo de Valdeoliva
(40.1604°N, 4.9878°W)
Time: 21:18:42
(UTC+00:00)

Cosmos 2219 - Pass Details

Date: 11 December 2025
Orbit: 831 x 860 km, 71.1° (Epoch: 11 January)

Event Time Altitude Azimuth Distance (km) Brightness Sun altitude
Rises 19:51:00 0° 329° (NNW) 3,436 6.7 -32.9°
Reaches altitude 10° 19:53:35 10° 322° (NW) 2,498 6.0 -33.4°
Maximum altitude 19:58:54 40° 255° (WSW) 1,241 4.4 -34.4°
Enters shadow 20:00:17 35° 222° (SW) 1,362 4.5 -34.7°
